Temperature
24 24 24 24 22 21 22 23 24 24 25 25 25 24 23 23 22 20 20 20 21 21 20 20 21 21 21 21 21 21 20 20 20 20 20 20 20 20 19 19 19 19 19 19 19 19 19 19 19
25 24 24 23 22 22 23 23 25 26 26 26 26 24 24 22 20 19 20 20 21 21 20 20 21 21 21 21 21 21 20 20 20 19 19 19 19 19 19 19 19 19 19 19 19 19 19 19 19
25 24 24 23 23 23 22 23 25 27 26 27 26 25 23 21 20 20 21 21 21 21 20 20 21 21 21 21 20 20 20 19 19 19 19 19 19 19 19 19 19 19 19 19 19 20 20 19 19
25 24 24 24 25 26 24 25 25 26 27 27 25 23 23 22 22 21 21 21 21 21 20 20 20 20 20 20 20 20 20 20 19 19 19 19 19 19 19 19 19 19 19 19 19 19 20 20 19
25 24 22 23 26 28 26 27 25 27 26 26 24 22 22 22 23 22 21 21 21 20 20 20 20 20 20 20 20 20 20 19 19 19 19 19 19 19 19 19 19 19 19 19 19 19 19 19 19
24 23 22 23 26 29 29 29 29 27 25 24 23 22 22 21 21 21 21 21 21 21 20 20 20 20 20 20 20 20 20 19 19 19 19 19 19 19 19 19 19 19 19 19 19 19 19 19 19
24 21 23 24 25 29 31 31 28 25 25 25 24 22 22 21 21 21 21 21 21 21 21 20 20 20 20 20 20 20 19 19 19 19 19 19 19 19 19 18 18 19 19 19 19 19 19 19 19
26 21 23 24 26 28 31 31 29 27 25 25 25 22 22 22 21 21 21 21 20 20 21 21 20 20 20 20 20 20 20 19 19 19 19 19 19 19 19 18 18 18 18 19 18 18 19 19 19
26 21 21 24 27 27 30 31 29 28 26 26 26 24 23 22 22 21 20 20 20 20 20 21 21 21 20 20 20 20 20 19 19 19 19 19 19 19 19 18 18 18 18 18 18 18 19 19 18
24 21 23 26 28 27 29 30 30 27 25 24 24 24 23 22 22 21 20 20 20 20 20 21 21 21 21 20 20 20 20 20 19 19 19 19 18 18 18 18 18 18 18 18 18 19 18 18 18
24 23 25 26 28 29 29 31 30 26 25 24 23 22 22 22 22 21 20 20 21 21 21 21 21 21 21 20 20 20 20 19 19 19 19 18 18 18 18 18 18 18 18 18 18 18 18 18 18
23 25 26 27 28 29 30 31 29 27 26 26 26 24 22 22 22 22 21 20 20 20 20 20 21 21 20 20 20 19 19 19 19 19 19 18 18 18 18 18 18 18 18 18 18 18 18 18 18
24 25 27 28 29 29 31 31 30 26 27 26 25 24 23 22 22 22 21 21 21 20 20 20 20 20 20 20 20 19 19 19 19 19 18 18 18 18 18 18 17 18 18 18 18 18 18 18 18
26 26 27 28 29 30 30 30 30 25 25 24 24 24 23 23 23 22 22 22 21 21 20 20 20 20 20 19 19 19 19 18 18 18 18 18 18 18 18 18 18 18 18 18 18 18 18 18 18
27 25 25 27 28 29 30 29 29 25 25 24 24 24 23 24 23 22 22 22 22 21 20 20 20 19 19 18 18 18 18 18 18 18 18 18 17 17 17 18 18 18 17 17 17 18 18 18 18
24 25 24 26 27 28 27 26 26 24 23 23 23 22 23 23 22 22 23 23 22 22 21 21 20 20 20 19 18 18 19 19 19 19 18 18 18 18 17 17 18 18 18 18 18 18 18 18 18
22 22 24 25 27 27 26 25 26 24 23 21 21 22 23 22 22 23 24 24 23 22 22 21 20 20 20 19 19 19 19 19 19 18 18 18 18 18 18 17 18 18 18 18 18 18 18 18 18
22 23 24 24 26 27 26 24 24 23 23 21 20 22 23 24 24 24 24 25 24 22 22 21 21 20 20 19 19 19 19 19 18 18 18 18 17 17 17 17 18 18 18 18 18 18 18 18 18
23 23 23 25 26 26 25 24 22 22 23 20 19 20 23 24 25 24 25 24 23 22 22 22 21 20 19 19 19 19 18 18 18 18 17 17 17 17 17 17 17 17 17 18 18 17 18 18 17
24 24 24 24 25 26 26 25 21 22 22 21 19 19 21 23 24 25 24 21 19 20 21 22 20 19 19 19 18 18 18 18 18 17 17 17 17 17 17 17 17 17 17 17 17 17 17 18 18
23 23 23 23 23 24 24 23 22 22 20 20 20 20 21 21 21 20 20 19 20 20 19 20 19 18 19 18 18 18 18 17 17 17 17 17 17 17 17 16 16 17 17 17 17 17 17 17 18
21 23 24 23 21 20 22 20 22 21 20 19 19 18 20 21 20 18 18 18 18 18 20 20 19 19 18 18 18 18 17 17 17 17 17 17 17 17 16 16 16 16 16 16 16 16 16 17 17
22 22 23 23 21 20 20 20 21 19 18 18 17 17 17 18 19 18 17 18 17 17 18 19 19 19 18 18 18 17 17 17 17 17 17 16 16 16 16 16 16 15 15 15 16 16 16 17 17
22 22 20 19 18 19 19 20 18 16 16 16 16 16 16 17 19 18 16 17 16 16 17 18 17 18 18 18 17 17 17 17 16 16 16 16 16 16 15 15 15 15 15 15 16 15 16 16 17
20 19 18 17 17 18 18 19 17 16 15 15 15 15 15 16 16 16 15 15 16 16 17 16 16 17 17 16 16 16 16 16 16 16 16 16 16 15 15 15 14 15 15 14 15 15 14 15 15
19 17 16 16 16 16 19 17 15 15 14 14 15 15 16 16 16 16 15 15 16 17 16 16 16 16 16 16 16 16 16 15 16 16 16 15 14 14 14 14 14 14 14 14 14 14 14 14 14
19 17 17 16 15 15 16 16 15 14 14 13 15 16 15 16 16 16 16 15 15 15 15 15 15 15 15 15 15 16 15 15 15 15 15 14 13 13 14 14 14 14 14 14 14 13 13 13 13
17 17 13 16 14 13 14 14 14 15 14 14 14 14 15 15 15 15 14 14 15 15 14 15 14 14 14 15 15 15 14 14 14 14 13 13 13 13 13 13 13 13 13 13 13 13 14 14 14
17 15 14 13 13 12 12 13 14 14 13 14 14 15 14 13 13 13 14 14 14 14 14 14 14 14 14 14 14 14 14 13 13 13 13 13 13 13 13 13 13 13 13 13 13 13 13 13 13
18 15 13 13 13 11 11 11 14 13 12 13 14 14 13 14 15 15 14 14 14 14 14 14 14 14 14 14 14 14 13 13 13 13 13 13 12 12 12 12 12 12 12 12 12 12 12 12 12
Wind_Speed
6 7 2 3 3 5 2 2 1 5 4 6 12 13 9 7 3 3 8 14 17 14 16 20 21 21 20 20 19 18 16 14 13 13 12 12 12 12 12 12 11 10 9 9 8 7 7 7 7
4 2 0 3 3 2 4 3 2 2 6 10 12 11 9 6 6 10 10 15 16 14 15 17 21 22 20 19 18 18 16 15 14 12 12 11 11 10 11 10 10 9 8 7 6 6 6 5 5
3 1 2 1 1 5 5 5 1 3 7 3 6 7 5 5 10 9 12 16 13 12 13 17 21 21 20 19 17 16 16 15 14 13 12 11 11 10 9 9 9 8 8 7 7 7 6 5 3
1 2 2 1 5 4 8 12 11 5 4 6 9 6 4 6 10 12 18 17 14 10 13 17 20 20 19 18 18 17 17 17 15 14 13 12 11 11 10 9 8 7 7 7 7 7 6 6 5
2 3 3 2 6 3 11 15 16 8 6 8 8 7 3 4 16 20 18 17 15 11 12 17 19 20 19 19 18 18 18 18 16 15 13 12 11 10 11 10 9 8 7 7 7 6 6 7 7
3 3 2 1 6 9 7 13 14 13 12 12 13 10 4 12 18 17 17 15 15 13 11 15 19 19 18 18 19 19 19 18 17 16 15 14 14 13 13 12 11 10 10 9 8 7 6 7 8
2 3 3 4 6 7 6 9 11 13 13 10 14 9 7 9 15 17 16 15 14 12 10 11 15 18 18 18 18 18 18 18 16 16 16 16 14 13 12 12 11 11 10 10 9 8 8 8 9
3 3 2 3 5 5 1 6 10 14 10 13 11 10 10 12 17 17 16 14 13 12 8 7 10 13 13 14 16 17 18 18 18 17 17 16 14 13 12 11 12 12 12 12 11 9 10 10 10
2 2 3 4 4 7 10 2 7 9 12 6 4 7 19 17 17 17 15 13 13 12 9 7 6 9 11 12 15 16 17 17 17 16 16 15 13 12 11 12 13 14 15 14 13 11 12 12 12
3 4 6 4 5 7 13 4 7 8 9 8 12 16 21 17 17 18 18 16 15 14 12 10 8 8 10 11 11 11 13 14 14 14 14 13 12 12 12 13 15 16 16 16 16 14 14 14 12
4 7 9 12 13 8 9 5 3 12 5 13 23 22 21 18 14 15 15 16 16 15 14 11 10 8 7 6 7 8 9 11 13 15 15 13 12 11 11 11 13 14 14 14 15 13 13 13 11
5 11 13 15 18 8 8 4 3 7 9 21 29 29 25 21 17 13 12 11 12 11 11 11 10 8 7 7 7 7 7 8 8 11 13 11 7 7 8 7 9 10 11 9 9 8 10 12 12
7 11 15 17 15 9 9 6 2 3 13 22 25 27 27 22 12 7 11 13 14 12 11 12 11 10 8 5 5 5 6 8 10 11 13 13 7 4 5 4 7 8 9 7 6 6 6 6 9
9 11 13 14 15 7 5 9 3 4 17 23 25 26 29 27 21 14 13 12 12 11 11 11 10 9 7 7 6 4 6 9 9 10 13 14 11 6 4 3 4 6 9 10 7 6 5 5 5
7 8 10 8 8 8 5 9 2 16 20 22 19 18 20 20 15 12 15 13 11 9 10 11 11 9 8 7 6 6 6 6 6 7 9 9 10 8 5 5 4 5 8 7 7 7 6 6 6
7 5 7 11 7 9 0 8 5 21 21 18 15 13 18 15 12 9 14 16 12 8 9 11 11 9 9 7 5 4 4 2 0 1 3 3 5 10 6 5 5 6 6 4 4 5 5 6 6
5 4 8 10 11 8 5 8 7 18 22 18 15 16 17 14 14 14 16 15 11 11 11 10 9 8 9 8 6 4 2 1 1 1 3 3 2 4 5 5 5 7 5 5 4 5 5 5 6
6 6 8 11 13 8 11 10 8 17 21 20 16 13 10 11 8 7 8 10 9 11 14 12 9 8 8 6 4 3 2 2 4 5 6 6 5 5 5 4 5 5 5 6 5 6 6 6 6
9 8 9 10 9 7 10 7 9 13 14 16 14 13 12 11 8 5 5 6 10 10 7 10 8 6 7 3 3 3 3 3 4 4 6 6 6 7 5 6 6 6 7 8 8 5 6 6 4
6 4 8 9 11 9 7 4 12 10 12 18 21 18 15 9 8 9 9 4 7 9 6 8 4 2 5 4 3 3 3 3 1 1 1 3 4 6 6 7 8 8 8 8 8 7 5 5 6
9 6 5 6 9 9 11 5 2 2 4 11 17 19 17 17 19 17 14 9 11 7 7 9 8 6 6 5 4 4 4 3 2 2 1 3 5 6 7 7 8 9 8 8 9 9 9 6 5
5 9 6 6 8 5 6 5 3 2 2 3 7 9 11 8 9 10 9 13 16 14 11 14 10 5 6 5 6 6 3 1 0 0 1 3 4 6 8 7 7 7 6 7 8 8 7 6 5
5 8 6 4 4 3 5 2 7 8 6 6 3 1 3 5 6 4 3 8 9 6 6 9 9 8 7 8 8 6 4 2 1 1 3 4 5 6 7 6 4 4 4 6 7 7 8 8 6
4 4 5 5 5 4 4 3 5 6 7 8 7 6 7 7 8 9 6 5 8 5 5 7 9 8 7 9 8 8 8 4 1 1 3 3 3 4 6 6 4 3 4 4 4 3 5 5 4
7 6 5 7 6 4 6 4 1 8 8 8 11 12 11 10 8 10 7 6 2 4 4 4 8 8 8 8 8 8 7 5 3 2 1 2 3 3 4 4 3 2 2 3 3 3 3 3 3
4 6 4 2 4 5 5 2 3 6 7 6 5 5 5 6 6 7 5 6 4 5 6 3 7 7 7 8 8 8 7 4 2 1 1 2 2 3 4 2 2 3 2 2 3 2 3 3 4
1 3 3 3 2 3 4 2 0 2 5 5 5 5 3 2 2 2 3 1 4 4 1 6 8 7 6 6 5 5 6 4 1 1 2 1 2 2 4 3 1 1 1 2 3 2 3 3 4
4 5 1 2 1 4 5 4 5 4 5 7 8 8 7 6 4 5 5 6 5 4 3 6 5 5 5 5 5 5 6 5 3 3 4 3 3 2 3 2 1 1 2 2 1 1 1 1 3
3 3 5 4 2 3 3 5 6 7 5 5 8 9 7 8 6 7 6 4 2 5 7 6 4 3 2 2 5 6 6 5 3 2 2 3 3 4 3 3 2 1 1 1 2 3 3 2 3
7 6 7 6 4 4 3 8 8 7 5 4 5 4 6 5 6 9 5 2 3 3 5 5 5 6 5 3 6 7 6 6 3 1 2 2 4 3 2 3 3 4 4 3 4 5 3 2 3
Wind_Direction
260 269 291 351 29 34 19 301 347 327 359 49 78 95 95 62 104 144 142 142 142 146 151 149 150 149 150 150 150 150 146 137 130 125 120 122 124 125 124 128 132 131 128 120 114 107 108 123 134
282 275 76 347 63 20 304 276 103 222 151 120 83 77 66 61 80 119 124 139 143 139 143 145 146 149 152 152 152 153 152 148 145 142 137 137 136 136 132 133 135 135 132 132 137 131 126 130 148
257 242 95 29 139 187 225 270 168 128 179 150 97 83 77 107 127 137 137 140 135 132 138 142 145 151 155 155 155 158 158 156 155 156 155 153 150 147 142 141 142 144 145 139 147 150 149 149 151
280 43 39 58 278 192 179 216 203 156 121 90 104 80 80 142 142 137 138 139 132 129 135 139 143 149 157 162 164 167 169 168 168 170 172 167 162 159 155 155 153 154 155 152 154 164 168 171 182
92 78 51 4 291 204 195 212 194 169 112 112 109 97 75 83 120 135 143 141 134 131 135 140 144 148 156 167 173 175 178 176 176 176 177 173 171 170 170 169 167 166 168 162 165 181 190 191 195
35 75 75 259 282 283 229 191 146 119 128 123 111 109 100 128 132 142 141 138 136 135 135 143 150 154 157 165 175 181 183 183 181 179 181 181 182 183 184 184 181 181 181 181 183 194 205 203 209
111 100 210 240 274 272 191 140 120 134 143 143 135 113 140 147 142 140 139 136 137 136 139 146 155 163 166 168 174 181 183 184 185 184 183 184 187 187 190 191 191 195 199 203 206 210 215 208 211
146 115 247 264 276 298 95 125 135 138 143 137 141 136 169 167 145 139 136 137 139 142 144 143 157 166 171 176 177 181 182 183 184 184 185 189 190 191 195 197 201 206 214 220 222 222 233 230 227
46 27 233 237 313 334 329 66 125 110 129 140 149 147 151 155 140 140 141 144 149 154 156 155 161 165 175 183 187 187 188 190 190 192 193 194 196 200 205 210 216 221 226 229 232 232 237 242 244
135 214 228 221 297 304 305 281 145 111 111 91 93 122 140 151 148 151 157 161 164 168 170 173 175 178 181 187 193 192 194 193 196 202 203 203 207 213 221 229 233 235 234 235 237 236 238 243 242
210 233 277 288 287 292 298 320 134 129 129 144 137 144 149 153 160 155 167 170 173 172 174 180 181 185 188 188 183 194 206 201 204 210 211 211 217 224 231 233 237 239 238 236 238 236 235 238 234
249 273 272 274 276 281 280 311 76 124 165 156 150 154 156 161 170 162 155 159 167 175 181 182 183 184 195 194 187 194 206 210 212 217 218 214 215 226 234 225 229 229 229 237 240 236 233 238 240
247 269 277 275 273 252 260 275 163 121 161 155 151 156 158 158 158 146 141 157 165 173 179 187 187 187 191 193 194 196 208 214 216 210 218 218 210 219 224 217 233 224 223 240 236 235 237 233 238
260 272 277 279 272 264 252 262 207 157 153 155 159 163 160 156 160 162 162 163 174 169 169 180 194 194 186 192 199 195 207 216 213 218 213 217 215 222 218 199 210 219 222 234 231 225 225 234 231
275 289 297 294 293 295 294 283 242 147 157 161 163 157 139 132 145 161 172 163 181 178 165 177 193 196 189 192 195 174 190 183 179 197 191 212 227 225 213 214 220 223 235 246 242 237 224 237 231
326 328 303 288 295 298 242 265 187 147 150 157 152 139 107 101 114 132 169 165 175 175 168 181 192 189 186 181 179 170 171 152 153 182 173 186 221 223 218 222 234 248 260 249 236 242 236 239 236
334 293 295 291 283 279 230 243 203 154 147 142 138 135 127 129 145 157 162 155 167 178 171 183 180 184 186 182 171 174 184 186 216 248 256 270 293 239 213 231 236 241 241 245 239 237 226 250 252
265 293 297 281 285 283 254 239 176 167 157 142 134 134 131 141 160 176 171 156 171 191 170 171 180 186 184 179 166 146 156 242 235 228 226 232 237 211 202 226 240 242 247 243 236 241 227 231 242
252 265 270 277 287 301 277 216 159 165 152 136 145 151 157 162 179 200 217 212 232 202 159 145 176 191 168 156 156 164 179 228 240 239 237 233 235 242 234 238 241 231 231 236 228 229 230 231 219
251 293 312 316 335 341 318 107 137 158 163 161 169 176 174 181 204 208 229 254 360 2 113 130 137 164 142 131 159 154 147 157 158 349 347 8 330 297 269 245 243 239 232 240 241 228 225 218 185
343 328 311 316 326 2 8 6 63 176 147 170 185 187 186 190 189 194 201 147 128 203 170 125 128 139 130 142 138 94 76 49 50 66 15 328 317 310 290 262 251 242 230 231 230 230 224 225 204
335 338 326 354 12 343 14 308 307 20 77 231 215 214 217 215 188 182 175 155 174 191 147 115 110 112 113 106 83 77 83 96 150 247 310 309 333 328 311 283 266 255 244 239 234 224 210 195 205
295 313 318 358 37 349 9 357 307 14 9 330 288 258 284 332 326 352 54 80 72 62 81 105 116 117 114 106 104 111 110 108 41 4 346 339 331 329 332 318 317 314 295 269 248 222 211 200 193
312 323 2 14 37 341 334 5 320 3 339 340 10 23 37 38 37 38 5 67 100 110 127 131 122 129 133 121 128 127 114 100 74 300 313 307 309 331 346 343 352 8 2 339 296 251 232 217 202
30 35 10 357 359 285 311 357 352 23 25 28 29 19 26 29 34 48 7 323 94 99 77 138 139 129 124 126 132 127 125 133 163 222 272 335 342 328 318 340 357 44 50 34 30 20 343 355 317
54 94 118 206 261 282 303 306 93 64 50 41 47 35 26 29 31 45 37 316 303 71 68 81 113 107 125 143 154 148 136 124 132 53 3 6 322 300 315 335 16 39 28 19 33 27 10 1 321
58 72 143 143 292 297 301 38 224 24 8 344 318 310 311 275 238 178 117 221 309 325 100 118 121 127 141 151 153 138 121 120 120 6 317 284 282 327 1 357 331 5 26 45 56 2 50 11 321
80 125 90 22 336 310 310 312 277 303 295 294 288 276 276 288 302 286 228 209 189 204 165 115 124 135 148 160 143 150 153 169 204 232 254 258 266 285 316 346 348 338 60 58 28 352 4 27 301
133 103 97 121 145 196 266 266 234 243 247 293 298 279 293 303 330 303 258 231 200 188 158 151 135 95 67 147 126 136 154 162 165 182 238 262 269 272 288 292 290 299 325 1 307 310 297 270 265
145 151 147 160 206 187 212 263 249 215 201 228 277 284 286 294 352 314 299 173 144 102 115 116 80 63 32 50 125 127 138 138 132 175 242 295 318 291 274 278 306 322 319 334 306 294 295 266 252
Height
1518 1515 1514 1514 1517 1522 1526 1518 1511 1510 1509 1506 1503 1507 1514 1518 1523 1532 1527 1528 1531 1533 1535 1539 1541 1542 1543 1544 1546 1548 1549 1550 1552 1553 1554 1555 1555 1556 1556 1557 1557 1559 1560 1561 1562 1563 1563 1563 1563
1518 1516 1516 1515 1524 1535 1526 1512 1505 1504 1509 1506 1506 1509 1513 1518 1520 1523 1525 1529 1532 1534 1536 1539 1541 1543 1544 1545 1547 1549 1550 1551 1552 1553 1554 1555 1556 1557 1557 1558 1559 1560 1561 1561 1562 1563 1563 1563 1563
1517 1516 1518 1518 1526 1530 1527 1509 1501 1503 1505 1506 1509 1513 1516 1521 1523 1525 1527 1529 1532 1534 1536 1539 1541 1543 1545 1547 1548 1550 1551 1552 1552 1553 1554 1555 1556 1557 1558 1559 1559 1560 1561 1561 1562 1562 1563 1563 1563
1516 1517 1518 1523 1523 1510 1510 1503 1501 1504 1505 1506 1509 1515 1520 1523 1524 1527 1529 1530 1532 1534 1537 1539 1541 1543 1546 1548 1549 1550 1551 1551 1552 1553 1554 1555 1556 1557 1558 1560 1560 1560 1561 1561 1562 1562 1562 1562 1562
1515 1517 1523 1527 1515 1499 1501 1496 1498 1501 1504 1508 1510 1516 1521 1523 1524 1528 1530 1531 1533 1535 1538 1539 1541 1543 1545 1548 1550 1550 1551 1551 1552 1554 1555 1556 1557 1557 1558 1560 1560 1561 1561 1561 1562 1562 1561 1561 1561
1515 1516 1528 1532 1518 1499 1491 1492 1493 1497 1504 1507 1510 1516 1523 1525 1525 1529 1531 1533 1534 1535 1538 1539 1541 1543 1545 1548 1549 1550 1551 1552 1552 1553 1554 1555 1555 1556 1557 1558 1559 1560 1560 1561 1560 1560 1560 1559 1560
1515 1519 1524 1522 1515 1501 1492 1492 1494 1499 1504 1506 1506 1514 1523 1525 1527 1530 1533 1534 1535 1536 1537 1539 1541 1543 1545 1546 1548 1549 1550 1552 1553 1553 1553 1554 1555 1556 1557 1558 1558 1559 1559 1560 1559 1559 1559 1558 1558
1513 1517 1520 1518 1512 1504 1492 1492 1494 1496 1502 1506 1507 1511 1520 1525 1527 1530 1533 1536 1536 1536 1537 1538 1540 1542 1544 1546 1548 1549 1550 1551 1552 1552 1553 1554 1555 1555 1556 1557 1558 1558 1558 1558 1558 1558 1558 1557 1556
1513 1520 1523 1515 1507 1502 1495 1492 1495 1496 1499 1504 1505 1505 1512 1522 1526 1529 1532 1533 1534 1535 1535 1536 1538 1540 1542 1545 1546 1547 1548 1550 1552 1552 1553 1554 1554 1554 1554 1555 1556 1556 1557 1557 1557 1556 1556 1555 1555
1512 1521 1513 1504 1502 1500 1496 1494 1494 1497 1499 1503 1505 1509 1513 1521 1525 1526 1527 1529 1530 1531 1533 1535 1537 1538 1540 1542 1545 1547 1548 1549 1551 1552 1553 1553 1553 1553 1553 1554 1555 1555 1556 1555 1555 1555 1554 1553 1552
1509 1510 1502 1499 1498 1499 1496 1491 1493 1497 1500 1499 1503 1511 1514 1519 1524 1526 1527 1528 1529 1531 1532 1534 1537 1539 1540 1541 1544 1546 1549 1550 1550 1551 1552 1552 1553 1552 1552 1553 1553 1553 1554 1553 1554 1554 1552 1551 1550
1507 1502 1499 1497 1495 1497 1495 1490 1493 1494 1497 1497 1496 1500 1506 1514 1519 1524 1529 1533 1534 1535 1536 1536 1538 1539 1541 1542 1543 1545 1547 1549 1549 1550 1550 1551 1551 1552 1552 1551 1551 1551 1551 1552 1551 1551 1550 1550 1549
1504 1500 1496 1494 1492 1492 1492 1488 1489 1493 1493 1494 1495 1499 1500 1508 1519 1524 1526 1529 1530 1531 1533 1537 1538 1539 1541 1542 1543 1544 1546 1548 1550 1550 1550 1551 1550 1550 1550 1550 1550 1550 1549 1549 1549 1549 1549 1548 1548
1500 1497 1493 1490 1488 1487 1487 1485 1486 1493 1493 1493 1492 1495 1497 1502 1510 1518 1522 1524 1529 1531 1531 1535 1539 1540 1541 1541 1542 1543 1545 1547 1548 1549 1550 1550 1549 1549 1549 1548 1548 1547 1546 1546 1546 1547 1546 1545 1544
1498 1496 1491 1486 1484 1484 1484 1485 1482 1485 1491 1490 1492 1497 1498 1499 1509 1514 1518 1520 1526 1530 1530 1532 1536 1540 1541 1541 1542 1542 1543 1545 1546 1548 1548 1549 1549 1547 1546 1546 1545 1545 1544 1544 1543 1543 1543 1542 1541
1498 1500 1502 1488 1484 1482 1490 1495 1483 1481 1488 1492 1495 1500 1499 1499 1505 1510 1513 1514 1521 1526 1528 1530 1533 1536 1539 1540 1541 1542 1543 1545 1546 1548 1547 1546 1547 1546 1544 1544 1543 1542 1541 1540 1540 1540 1539 1539 1539
1509 1514 1506 1495 1482 1482 1488 1492 1479 1483 1486 1493 1496 1497 1498 1501 1503 1503 1501 1503 1515 1521 1523 1529 1531 1533 1535 1537 1538 1540 1541 1542 1543 1544 1545 1544 1544 1544 1541 1540 1539 1538 1537 1536 1536 1536 1535 1535 1535
1517 1513 1508 1501 1485 1485 1486 1486 1478 1479 1482 1487 1493 1495 1498 1498 1499 1501 1501 1499 1507 1517 1518 1524 1528 1529 1531 1534 1535 1535 1535 1537 1539 1542 1542 1541 1541 1540 1538 1536 1535 1534 1533 1532 1532 1531 1531 1530 1530
1509 1511 1510 1496 1484 1486 1484 1481 1481 1479 1485 1489 1491 1489 1491 1491 1493 1498 1501 1500 1505 1512 1518 1519 1524 1525 1527 1530 1532 1531 1531 1533 1535 1538 1538 1536 1536 1535 1533 1530 1530 1529 1528 1527 1526 1525 1524 1524 1525
1503 1507 1505 1494 1485 1485 1483 1482 1485 1483 1482 1484 1487 1487 1486 1487 1489 1491 1494 1496 1500 1507 1517 1517 1519 1523 1524 1527 1528 1526 1526 1529 1532 1533 1531 1531 1531 1530 1528 1524 1524 1522 1520 1520 1519 1519 1518 1517 1519
1504 1506 1504 1502 1492 1487 1491 1496 1493 1491 1490 1490 1488 1483 1484 1484 1485 1486 1487 1490 1493 1499 1508 1510 1513 1518 1519 1522 1523 1521 1522 1526 1528 1528 1527 1527 1526 1523 1521 1517 1515 1514 1513 1512 1512 1511 1510 1510 1512
1513 1502 1497 1497 1505 1512 1505 1522 1501 1496 1498 1497 1494 1490 1486 1485 1487 1488 1488 1489 1493 1495 1497 1497 1503 1510 1512 1516 1518 1519 1520 1523 1524 1524 1523 1523 1520 1516 1513 1509 1508 1507 1506 1505 1504 1504 1503 1504 1506
1508 1500 1498 1497 1506 1513 1511 1518 1507 1497 1501 1500 1496 1495 1496 1494 1494 1495 1496 1495 1497 1497 1496 1496 1499 1504 1508 1512 1515 1516 1517 1520 1520 1519 1520 1518 1515 1511 1507 1504 1502 1501 1500 1499 1498 1497 1497 1498 1500
1500 1500 1505 1508 1514 1527 1519 1520 1521 1513 1511 1503 1498 1496 1495 1490 1490 1494 1494 1491 1491 1495 1497 1495 1497 1502 1507 1509 1511 1513 1514 1516 1517 1517 1515 1513 1510 1507 1504 1501 1499 1497 1496 1495 1493 1491 1492 1493 1495
1506 1516 1531 1534 1538 1535 1519 1520 1525 1517 1514 1510 1505 1499 1495 1493 1490 1490 1496 1497 1493 1495 1495 1495 1496 1499 1504 1508 1510 1510 1512 1514 1514 1513 1510 1507 1505 1504 1501 1499 1498 1496 1494 1492 1490 1488 1489 1491 1492
1511 1521 1540 1550 1550 1538 1518 1524 1527 1520 1515 1511 1506 1503 1499 1495 1491 1491 1491 1502 1499 1498 1500 1500 1498 1500 1504 1508 1509 1510 1510 1511 1511 1509 1506 1504 1503 1502 1499 1497 1496 1495 1493 1491 1490 1489 1488 1488 1489
1518 1522 1524 1533 1541 1545 1532 1526 1524 1518 1513 1510 1505 1502 1499 1496 1491 1486 1483 1487 1497 1502 1505 1502 1498 1499 1503 1506 1507 1506 1506 1509 1509 1506 1505 1503 1502 1499 1498 1496 1495 1494 1492 1491 1490 1490 1488 1488 1489
1513 1519 1535 1534 1547 1553 1543 1536 1531 1517 1512 1506 1503 1498 1494 1491 1489 1487 1486 1489 1493 1501 1503 1500 1498 1498 1499 1502 1504 1505 1506 1507 1508 1506 1504 1503 1501 1499 1497 1495 1494 1493 1491 1490 1490 1491 1490 1488 1487
1516 1523 1530 1540 1544 1554 1556 1542 1517 1512 1509 1506 1503 1499 1495 1493 1488 1489 1488 1491 1494 1498 1498 1498 1496 1498 1499 1501 1502 1505 1505 1506 1507 1505 1503 1502 1500 1498 1496 1495 1493 1491 1490 1490 1490 1488 1489 1489 1487
1506 1517 1527 1539 1541 1546 1550 1541 1505 1505 1505 1503 1500 1499 1499 1494 1490 1491 1490 1491 1492 1493 1494 1495 1494 1498 1502 1503 1503 1504 1504 1503 1503 1503 1501 1498 1497 1497 1495 1494 1492 1490 1490 1489 1489 1488 1487 1488 1487